www.pogodaiklimat.ru

ПОГОДА в Сакраменто, CA

  • Прогноз погоды в Сакраменто
  • Монитор погоды в Сакраменто
  • Климат в Сакраменто

АРХИВ ПОГОДЫ в Сакраменто

Время (UTC), дата Ветер
(напр.,м/с)
 
Видим.   Явления Облачность Т
(С)
Тd
(С)
f
(%)
Тe
(С)
Тes
(С)
Комфортность

P
(гПа)

Po
(гПа)
Тmin
(С)
Tmax
(С)
R
(мм)
SD
(см)
14:43 22.05 СЗ  16 км    8/8 360 м
[средняя] 
+12.8  +9.4  80  +11  +12      1009.1         
14:53 22.05 С  16 км    8/8 450 м
[средняя] 
+13.3  +9.4  77  +12  +12    1010.1  1009.1         
15:28 22.05 С  16 км    8/8 450 м
[верхняя] 
+14.4  +10.0  75  +13  +14      1009.1         
15:44 22.05 С  16 км    8/5 510 м
[верхняя] 
+14.4  +9.4  72  +13  +14      1008.7         
15:53 22.05 С  5
{8} 
16 км    8/5 510 м
[верхняя] 
+15.0  +9.4  69  +13  +15    1009.8  1008.7         
16:53 22.05 С  7
{9} 
16 км    8/2 900 м
[верхняя] 
+16.7  +10.0  65  +15  +17    1009.2  1008.4  +7.8  +17.2     
17:53 22.05 С  16 км    8/0 7500 м
[верхняя] 
+18.9  +9.4  54  +19  +27    1009.0  1008.1         
18:53 22.05 СЗ  16 км    8/0 7500 м
[верхняя] 
+21.1  +10.0  49  +23  +28  комфорт  1008.5  1007.4         
19:53 22.05 СЗ  6
{10} 
16 км    8/0 7500 м
[верхняя] 
+22.8  +8.3  39  +24  +28  комфорт  1008.3  1007.4         
20:53 22.05 С  16 км    8/0 7500 м
[верхняя] 
+23.9  +7.2  34  +24  +28  комфорт  1007.9  1007.1         
21:53 22.05 СЗ  16 км    8/0 7500 м
[верхняя] 
+22.8  +7.8  38  +24  +27  комфорт  1007.4  1006.4         
22:53 22.05 СЗ  6
{10} 
16 км    8/0 4500 м
[средняя] 
+23.9  +8.9  38  +25  +26  комфорт  1006.8  1005.7  +17.2  +24.4     
23:53 22.05 СЗ  16 км    8/0 4500 м
[средняя] 
+23.3  +9.4  41  +25  +27  комфорт  1006.6  1005.7         
00:53 23.05 СЗ  16 км    8/0 4500 м
[средняя] 
+22.2  +10.0  46  +24  +25  комфорт  1006.6  1005.7         
01:53 23.05 СЗ  16 км    8/0 3600 м
[средняя] 
+21.1  +10.6  51  +23  +23  комфорт  1006.7  1005.7         
02:53 23.05 З  16 км    8/0 3000 м
[средняя] 
+19.4  +12.8  66  +22  +22  комфорт  1006.7  1005.7         
03:53 23.05 СЗ  16 км    8/0 3000 м
[средняя] 
+19.4  +11.7  61  +21  +21  комфорт  1006.7  1005.7         
04:53 23.05 СЗ  16 км    8/0 3300 м
[средняя] 
+18.3  +12.2  68  +19  +19    1006.7  1005.7  +17.8  +24.4     
05:53 23.05 СЗ  16 км    8/0 3600 м
[средняя верхняя] 
+17.2  +12.2  72  +17  +17    1006.9  1006.0         
06:53 23.05 СЗ  16 км    5/0 3600 м
[средняя] 
+16.7  +12.2  75  +16  +16    1006.4  1005.4         
07:53 23.05 СЗ  16 км    8/0 3600 м
[средняя] 
+16.7  +11.7  72  +16  +16    1006.2  1005.4         
08:53 23.05 С  16 км    8/0 3600 м
[средняя] 
+16.7  +10.6  67  +16  +16    1005.8  1004.7         
09:53 23.05 СЗ  16 км    8/0 3600 м
[средняя] 
+15.6  +10.0  69  +14  +14    1005.5  1004.7         
10:53 23.05 СЗ  16 км    8/0 3600 м
[средняя] 
+15.6  +9.4  67  +14  +14    1005.6  1004.7  +15.6  +18.3     
11:53 23.05 С  16 км    8/0 3000 м
[средняя] 
+15.6  +9.4  67  +15  +15    1005.8  1005.0         
12:53 23.05 В  16 км    8/0 7500 м
[верхняя] 
+15.6  +11.1  75  +15  +15    1006.4  1005.4         
13:53 23.05 В  16 км    8/0 7500 м
[верхняя] 
+16.1  +11.7  75  +16  +16    1006.6  1005.7         
14:53 23.05   16 км    8/0 7500 м
[верхняя] 
+17.8  +12.2  70  +18  +22    1007.4  1006.4         
15:53 23.05 В  16 км    8/0 7500 м
[верхняя] 
+18.9  +11.7  63  +20  +25    1007.7  1006.7         
16:53 23.05 ЮВ  16 км    8/0 7500 м
[верхняя] 
+20.6  +11.7  57  +23  +30  комфорт  1008.0  1007.1  +14.4  +20.6     
17:53 23.05 нст  16 км    5/0 7500 м
[верхняя] 
+21.7  +11.7  53  +24  +36  комфорт  1008.1  1007.1         
18:53 23.05 В  16 км    5/0 7500 м
[верхняя] 
+23.3  +11.1  46  +26  +35  жарко  1008.3  1007.4         
19:53 23.05 нст  16 км    5/0 7500 м
[верхняя] 
+23.3  +10.6  45  +25  +42  комфорт  1008.4  1007.4         
20:53 23.05 нст  16 км    2/2 1500 м  +25.0  +11.1  42  +26  +39  жарко  1008.4  1007.4         
21:53 23.05 В  16 км    2/2 1650 м  +24.4  +11.1  43  +26  +36  жарко  1008.3  1007.4         
22:53 23.05 СЗ  16 км    ясно  +24.4  +10.6  42  +26  +39  жарко  1008.6  1007.7  +20.0  +25.6     
23:53 23.05 СВ  16 км    2/2 1650 м  +26.1  +9.4  35  +27  +31  жарко  1008.8  1007.7         
00:22 24.05 В  6
{10} 
16 км    2/2 1650 м  +22.8  +11.7  50  +25  +26  комфорт    1008.1         
00:53 24.05 ЮВ  16 км    2/2 1650 м  +22.8  +11.1  48  +25  +26  комфорт  1009.4  1008.4         
01:53 24.05 В  16 км    5/2 1650 м
[средняя] 
+21.7  +10.6  49  +23  +24  комфорт  1010.5  1009.4         
02:53 24.05 ЮВ  16 км    2/2 1650 м
[средняя] 
+19.4  +11.1  59  +20  +20    1011.2  1010.1         
03:53 24.05 Ю  16 км    2/2 1650 м  +18.9  +12.2  65  +20  +20    1012.1  1011.1         
04:53 24.05 ЮВ  16 км    2/2 1650 м  +16.1  +11.7  75  +15  +15    1012.9  1011.8  +16.1  +26.1     
05:53 24.05 Ю  16 км    ясно  +15.6  +11.1  75  +15  +15    1013.2  1012.1         
06:53 24.05 ЮВ  16 км    ясно  +15.0  +11.1  77  +14  +14    1013.5  1012.5         
07:53 24.05 ЮВ  16 км    ясно  +13.9  +10.6  80  +12  +12    1013.5  1012.5         
08:53 24.05 Ю  16 км    ясно  +13.9  +10.6  80  +12  +12    1014.0  1013.1         
09:53 24.05 ЮВ  16 км    2/2 1800 м  +13.3  +10.6  84  +11  +11    1014.2  1013.1         

 

Местоположение метеостанции Sacramento International Airport: широта 38.7014 долгота -121.5939 высота над уровнем моря 8 м.

В архиве по умолчанию представлена погода в Сакраменто за последние 1-2 суток. Обновление информации о фактической погоде в базе происходит ежечасно! Архивные данные за месяц целиком и за предыдущие месяцы Вы можете получить, выбрав интересующий диапазон дат из раскрывающегося списка и нажав кнопку "Ввод!".

Внимание! Архив погоды МЕТАР в базе сайта хранится не более 60 дней. Нет смысла пытаться выбрать более раннюю дату.

Внимание! Время в таблицах - всемирное. Для получения местного времени необходимо прибавить поправку, которая в Сакраменто равна -8 ч.

Ветер - указаны скорость ветра в м/с и направление, откуда дует ветер: С - северный, СВ - северо-восточный, В - восточный, ЮВ - юго-восточный, Ю - южный, ЮЗ - юго-западный, З - западный, СЗ - северо-западный.
Видимость - горизонтальная дальность видимости в метрах или километрах. При видимости от 1 до 10 км при отсутствии осадков обычно наблюдается дымка, при ухудшении видимости до 1 км и менее - туман. В сухую погоду видимость может ухудшаться дымом, пылью или мглою.
Атмосферные явления - указаны явления, наблюдавшиеся в указанный момент времени.
Облачность - указаны через наклонную черту верхняя и нижняя облачность в баллах и высота нижней границы облаков в метрах. Внимание: облачность, как и прочие метеорологические величины в США измеряются автоматическими метеостанциями. Указанные значения в баллах носят условный характер и показывают процент времени, в течение которого, в среднем, лазерный луч высотомера отражался от облаков обратно.
T - Температура воздуха - температура, измеренная на высоте 2 м над землей.
Td - Температура точки росы - температура, при понижении до которой содержащийся в воздухе водяной пар достигнет насыщения.
f - Относительная влажность воздуха - влажноcть воздуха, измеренная на высоте 2 м над землей.
Te - Эффективная температура - температура, которую ощущает одетый по сезону человек в тени. Характеристика душности погоды. При расчете учитывается влияние влажности воздуха и скорости ветра на теплоощущения человека.
Tes - Эффективная температура на солнце - температура, которую ощущает человек, с поправкой на солнечный нагрев. Характеристика знойности погоды. Зависит от высоты солнца над горизонтом, облачности и скорости ветра. Ночью, в пасмурную погоду, а также при ветре 12 м/с и более поправка равна нулю.
P - Атмосферное давление - приведенное к уровню моря атмосферное давление.
Po - Атмосферное давление - измеренное на уровне метеостанции атмосферное давление.
Tmin - Минимальная температура - минимум температуры воздуха на высоте 2 м над землей.
Tmax - Максимальная температура - максимум температуры воздуха на высоте 2 м над землей.
R - Количество осадков - Количество выпавших осадков за 3 или 6 часов, мм.
SD - Снежный покров - Высота снежного покрова, см.